Date String (YYYY-MM-DD hh:mm:ss) UTC,Instrument flags,Ambient pressure (hPa),Sample flow (lpm),Bypass flow (lpm),Sample temperature (°C),Ambient temperature (°C),ASC tube jacket temperature (°C),LED temperature (°C),Box temperature (°C),Sample RH (%),Span deviation,Mass concentration (μg/m³),Mass concentration (μg/m³),Mass concentration (μg/m³)
DateTimeUTC,F1_M11,P_M11,Q1_M11,Q2_M11,T1_M11,T2_M11,T3_M11,T4_M11,T5_M11,U1_M11,ZSPAN_M11,X0_M11,X2_M11,X1_M11
2022-03-17 02:00:00,,0822.5,5.00,0.00,25.0,24.2,00.0,34.0,26.8,20.4,0000.0,0006.41,0002.85,0001.37
2022-03-17 02:01:00,,0822.5,5.00,0.00,25.0,24.2,00.0,34.0,26.8,20.4,0000.0,0006.73,0002.99,0001.42
2022-03-17 02:02:00,,0822.4,5.00,0.00,25.0,24.2,00.0,34.0,26.8,20.4,0000.0,0006.73,0003.01,0001.46
2022-03-17 02:03:00,,0822.5,4.99,0.00,25.0,24.2,00.0,34.0,26.8,20.4,0000.0,0006.87,0003.11,0001.48
2022-03-17 02:04:00,,0822.5,5.01,0.00,25.0,24.2,00.0,34.0,26.8,20.4,0000.0,0006.79,0003.13,0001.50
2022-03-17 02:05:00,,0822.5,5.00,0.00,25.0,24.2,00.0,34.0,26.8,20.4,0000.0,0006.41,0003.06,0001.52
2022-03-17 02:06:00,,0822.5,5.00,0.00,25.0,24.2,00.0,33.9,26.8,20.4,0000.0,0006.21,0002.96,0001.48
2022-03-17 02:07:00,,0822.5,5.01,0.00,25.0,24.2,00.0,33.9,26.8,20.4,0000.0,0005.92,0002.85,0001.44
2022-03-17 02:08:00,,0822.5,5.00,0.00,25.0,24.2,00.0,33.9,26.8,20.4,0000.0,0005.60,0002.69,0001.37
2022-03-17 02:09:00,,0822.5,5.00,0.00,25.0,24.2,00.0,33.9,26.8,20.4,0000.0,0005.15,0002.53,0001.31
2022-03-17 02:10:00,,0822.5,5.01,0.00,24.9,24.2,00.0,33.9,26.8,20.4,0000.0,0004.85,0002.35,0001.24
2022-03-17 02:11:00,,0822.5,5.00,0.00,24.9,24.1,00.0,33.9,26.8,20.4,0000.0,0004.24,0002.11,0001.19
2022-03-17 02:12:00,,0822.6,5.00,0.00,24.9,24.1,00.0,33.9,26.7,20.3,0000.0,0003.92,0001.95,0001.13
2022-03-17 02:13:00,,0822.6,5.00,0.00,24.9,24.1,00.0,33.9,26.7,20.3,0000.0,0003.83,0001.88,0001.07
2022-03-17 02:14:00,,0822.5,5.00,0.00,24.9,24.1,00.0,33.9,26.7,20.3,0000.0,0003.53,0001.78,0001.02
2022-03-17 02:15:00,,0822.5,5.00,0.00,24.9,24.1,00.0,33.9,26.7,20.2,0000.0,0003.52,0001.74,0000.99
2022-03-17 02:16:00,,0822.5,5.00,0.00,24.9,24.1,00.0,33.9,26.7,20.2,0000.0,0003.30,0001.62,0000.94
2022-03-17 02:17:00,,0822.6,5.00,0.00,24.9,24.1,00.0,33.9,26.7,20.2,0000.0,0003.26,0001.57,0000.90
2022-03-17 02:18:00,,0822.6,5.00,0.00,24.9,24.1,00.0,33.9,26.7,20.2,0000.0,0003.15,0001.50,0000.87
2022-03-17 02:19:00,,0822.6,5.00,0.00,24.9,24.0,00.0,33.9,26.7,20.1,0000.0,0003.16,0001.51,0000.86
2022-03-17 02:20:00,,0822.5,4.99,0.00,24.9,24.0,00.0,33.9,26.7,20.1,0000.0,0003.12,0001.51,0000.84
2022-03-17 02:21:00,,0822.5,5.00,0.00,24.8,24.0,00.0,33.8,26.6,20.1,0000.0,0003.06,0001.50,0000.83
2022-03-17 02:22:00,,0822.5,4.99,0.00,24.8,24.0,00.0,33.8,26.6,20.0,0000.0,0003.09,0001.53,0000.82
2022-03-17 02:23:00,,0822.5,5.01,0.00,24.8,24.0,00.0,33.8,26.6,19.9,0000.0,0003.03,0001.54,0000.82
2022-03-17 02:24:00,,0822.5,5.00,0.00,24.8,24.0,00.0,33.8,26.6,19.9,0000.0,0003.48,0001.52,0000.81
2022-03-17 02:25:00,,0822.5,5.00,0.00,24.8,23.9,00.0,33.8,26.6,19.8,0000.0,0003.59,0001.54,0000.80
2022-03-17 02:26:00,,0822.5,5.00,0.00,24.8,23.9,00.0,33.8,26.6,19.8,0000.0,0003.53,0001.53,0000.80
2022-03-17 02:27:00,,0822.5,5.00,0.00,24.8,23.9,00.0,33.8,26.6,19.7,0000.0,0003.50,0001.51,0000.77
2022-03-17 02:28:00,,0822.5,5.00,0.00,24.7,23.9,00.0,33.8,26.5,19.6,0000.0,0003.66,0001.57,0000.77
2022-03-17 02:29:00,,0822.5,5.00,0.00,24.7,23.9,00.0,33.8,26.5,19.5,0000.0,0003.91,0001.62,0000.76
2022-03-17 02:30:00,,0822.5,5.00,0.00,24.7,23.9,00.0,33.8,26.5,19.5,0000.0,0003.87,0001.59,0000.75
2022-03-17 02:31:00,,0822.6,4.99,0.00,24.7,23.8,00.0,33.7,26.5,19.4,0000.0,0003.76,0001.54,0000.75
2022-03-17 02:32:00,,0822.6,5.00,0.00,24.7,23.8,00.0,33.7,26.4,19.4,0000.0,0003.86,0001.58,0000.75
2022-03-17 02:33:00,,0822.6,5.01,0.00,24.7,23.8,00.0,33.7,26.3,19.4,0000.0,0003.83,0001.56,0000.75
2022-03-17 02:34:00,,0822.6,5.02,0.00,24.6,23.8,00.0,33.7,26.3,19.3,0000.0,0003.85,0001.55,0000.74
2022-03-17 02:35:00,,0822.6,5.00,0.00,24.6,23.7,00.0,33.7,26.3,19.3,0000.0,0004.09,0001.58,0000.74
2022-03-17 02:36:00,,0822.6,4.99,0.00,24.6,23.7,00.0,33.7,26.4,19.3,0000.0,0005.41,0001.62,0000.75
2022-03-17 02:37:00,,0822.6,5.00,0.00,24.6,23.7,00.0,33.7,26.3,19.3,0000.0,0005.27,0001.56,0000.73
2022-03-17 02:38:00,,0822.6,5.00,0.00,24.6,23.7,00.0,33.7,26.4,19.4,0000.0,0005.49,0001.64,0000.74
2022-03-17 02:39:00,,0822.6,5.00,0.00,24.6,23.7,00.0,33.6,26.3,19.4,0000.0,0005.50,0001.64,0000.75
2022-03-17 02:40:00,,0822.6,5.00,0.00,24.6,23.7,00.0,33.6,26.3,19.5,0000.0,0005.26,0001.61,0000.75
2022-03-17 02:41:00,,0822.6,5.00,0.00,24.6,23.7,00.0,33.6,26.3,19.5,0000.0,0007.04,0001.62,0000.75
2022-03-17 02:42:00,,0822.7,4.99,0.00,24.5,23.7,00.0,33.6,26.3,19.6,0000.0,0007.45,0001.72,0000.76
2022-03-17 02:43:00,,0822.7,5.01,0.00,24.5,23.7,00.0,33.6,26.3,19.7,0000.0,0007.58,0001.78,0000.77
2022-03-17 02:44:00,,0822.7,5.01,0.00,24.5,23.7,00.0,33.6,26.3,19.7,0000.0,0007.69,0001.81,0000.76
2022-03-17 02:45:00,,0822.7,5.00,0.00,24.5,23.7,00.0,33.6,26.3,19.7,0000.0,0007.79,0001.90,0000.78
2022-03-17 02:46:00,,0822.7,4.99,0.00,24.5,23.7,00.0,33.6,26.3,19.8,0000.0,0007.73,0001.87,0000.77
2022-03-17 02:47:00,,0822.7,4.99,0.00,24.5,23.7,00.0,33.5,26.3,19.8,0000.0,0006.23,0001.86,0000.77
2022-03-17 02:48:00,,0822.7,5.00,0.00,24.5,23.7,00.0,33.5,26.3,19.9,0000.0,0006.30,0001.90,0000.79
2022-03-17 02:49:00,,0822.7,5.00,0.00,24.5,23.7,00.0,33.5,26.3,19.9,0000.0,0006.50,0001.88,0000.79
2022-03-17 02:50:00,,0822.7,5.00,0.00,24.5,23.7,00.0,33.5,26.3,20.0,0000.0,0006.42,0001.85,0000.79
2022-03-17 02:51:00,,0822.7,5.00,0.00,24.5,23.7,00.0,33.5,26.3,20.0,0000.0,0006.45,0001.85,0000.80
2022-03-17 02:52:00,,0822.7,5.00,0.00,24.5,23.7,00.0,33.5,26.3,20.0,0000.0,0005.42,0001.88,0000.80
2022-03-17 02:53:00,,0822.7,5.01,0.00,24.5,23.7,00.0,33.5,26.3,20.0,0000.0,0004.55,0001.90,0000.81
2022-03-17 02:54:00,,0822.8,5.00,0.00,24.5,23.7,00.0,33.5,26.3,20.1,0000.0,0004.50,0001.91,0000.82
2022-03-17 02:55:00,,0822.9,5.00,0.00,24.5,23.7,00.0,33.5,26.3,20.1,0000.0,0004.55,0001.90,0000.83
2022-03-17 02:56:00,,0822.9,5.01,0.00,24.5,23.7,00.0,33.5,26.3,20.1,0000.0,0004.56,0001.87,0000.83
2022-03-17 02:57:00,,0822.9,5.00,0.00,24.5,23.7,00.0,33.5,26.4,20.1,0000.0,0004.69,0001.91,0000.84
2022-03-17 02:58:00,,0823.0,5.00,0.00,24.5,23.7,00.0,33.5,26.4,20.1,0000.0,0004.68,0001.90,0000.84
2022-03-17 02:59:00,,0823.0,5.00,0.00,24.5,23.7,00.0,33.5,26.4,20.1,0000.0,0005.07,0001.91,0000.85
